Location: Pedimozza
(42.0500°N, 9.3500°E)
Time: 06:31:08
(UTC+00:00)

Cosmos 1777 Rocket - Pass Details

Date: 19 August 2019
Orbit: 757 x 777 km, 74.0° (Epoch: 14 September)

Event Time Altitude Azimuth Distance (km) Brightness Sun altitude
Rises 19:30:02 0° 204° (SSW) 3,221 7.2 -13.0°
Reaches altitude 10° 19:32:24 10° 206° (SSW) 2,301 6.4 -13.4°
Maximum altitude 19:37:38 73° 291° (WNW) 811 4.3 -14.2°
Drops below altitude 10° 19:42:55 10° 16° (NNE) 2,329 6.7 -15.1°
Sets 19:45:19 0° 19° (NNE) 3,262 7.5 -15.4°
